Regional Weather Roundup
Issued by NWS

Home | Current Version | Previous Version | Text Only | Print | Product List | Glossary On
Versions: 1 2 3 4 5 6 7 8 9 10 11 12 13 14 15 16 17 18 19 20 21 22 23 24 25 26 27 28 29 30 31 32 33 34 35 36 37 38 39 40 41 42 43 44 45 46 47 48 49 50
000
ASUS43 KMKX 201111
RWRWI

WISCONSIN REGIONAL WEATHER ROUNDUP
NATIONAL WEATHER SERVICE MILWAUKEE/SULLIVAN WI
600 AM CDT MON OCT 20 2014

NOTE: "FAIR" INDICATES FEW OR NO CLOUDS BELOW 12,000 FEET WITH NO
SIGNIFICANT WEATHER AND/OR OBSTRUCTIONS TO VISIBILITY.

WIZ001-002-006>008-014>016-023>028-201200-
NORTHWEST WISCONSIN

CITY           SKY/WX    TMP DP  RH WIND       PRES   REMARKS
SUPERIOR ARPT  CLEAR     40  38  93 SW5       29.90R
ASHLAND        CLOUDY    45  42  89 SW3       29.87R
HAYWARD        MOCLDY    37  35  92 CALM      29.89R
SIREN          CLEAR     38  36  94 CALM      29.92R
CUMBERLAND     PTCLDY    43  39  87 NW8       29.90R
RICE LAKE      MOCLDY    43  40  88 NW5       29.91R
CHETEK         MOCLDY    45  42  89 W3        29.90R
LADYSMITH      CLEAR     42  39  92 NW5       29.89R
EAU CLAIRE     CLEAR     43  39  86 W6        29.89R
MENOMONIE      CLEAR     46  41  84 CALM      29.90S
NEW RICHMOND   CLEAR     42  40  95 W7        29.92R
OSCEOLA        CLEAR     37  37 100 CALM      29.96R
$$

WIZ003>005-009-010-017-018-201200-
NORTH CENTRAL WISCONSIN

CITY           SKY/WX    TMP DP  RH WIND       PRES   REMARKS
MANITOWISH WTR CLOUDY    45  43  94 NW5       29.83R
ARBOR VITAE    CLOUDY    47  43  88 N7        29.83R
WOODRUFF       CLOUDY    47  43  88 N7        29.83R
RHINELANDER    CLOUDY    46  42  86 NW3       29.83R
EAGLE RIVER    CLOUDY    45  42  91 N8        29.82R
LAND O LAKES   CLOUDY    45  41  85 N7        29.83R
PHILLIPS       MOCLDY    39  39 100 CALM      29.86R
TOMAHAWK       CLOUDY    41  40  96 CALM      29.84R
MEDFORD        CLEAR     39  38  97 W5        29.85R
MERRILL        CLEAR     39  39  99 CALM      29.83R
$$

WIZ029-030-035-036-043>047-201200-
CENTRAL WISCONSIN

CITY           SKY/WX    TMP DP  RH WIND       PRES   REMARKS
WAUSAU         CLEAR     44  41  89 NW5       29.82R
MOSINEE        CLEAR     43  43 100 NW9       29.84R
MARSHFIELD     CLEAR     43  40  89 NW12      29.85R
STEVENS POINT  CLEAR     43  40  91 NW8       29.83R
WAUPACA        CLEAR     46  44  95 NW7       29.80R
WAUTOMA        PTCLDY    46  43  90 NW9       29.82R
WISC RAPIDS    CLEAR     47  42  83 NW9       29.85R
CAMP DOUGLAS   CLEAR     47  47 100 NW8       29.86R
$$

WIZ011>013-019>022-031-037>040-048>050-201200-
NORTHEAST WISCONSIN

CITY           SKY/WX    TMP DP  RH WIND       PRES   REMARKS
ANTIGO         CLOUDY    40  40 100 NW7       29.81S
SHAWANO        CLEAR     40  39  95 CALM      29.79R
OCONTO         CLOUDY    44  44  99 NW5       29.77R
STURGEON BAY   MOCLDY    46  43  87 NW6       29.77R
GREEN BAY      CLOUDY    41  40  96 CALM      29.78R
MANITOWOC      PTCLDY    47  44  90 W8        29.77R
APPLETON       PTCLDY    43  41  93 W9        29.78R
CLINTONVILLE   CLEAR     41  41 100 NW5       29.79R
OSHKOSH        PTCLDY    45  42  89 W7        29.78R
$$

WIZ032>034-041-042-053>061-201200-
SOUTHWEST WISCONSIN

CITY           SKY/WX    TMP DP  RH WIND       PRES   REMARKS
LA CROSSE      CLEAR     43  40  89 CALM      29.90R
SPARTA         CLEAR     47  40  78 NW6       29.89R
VIROQUA        CLEAR     47  42  81 NW9       29.88R
BOSCOBEL       CLEAR     45  41  86 CALM      29.88R
PRAIRIE DU CHI CLEAR     48  41  77 W7        29.89R
PLATTEVILLE    CLEAR     46  43  90 CALM      29.86R
$$

WIZ056-057-062-063-064-067-068-201200-
SOUTH CENTRAL WISCONSIN

CITY           SKY/WX    TMP DP  RH WIND       PRES   REMARKS
REEDSBURG      CLEAR     47  43  85 NW5       29.84R
BARABOO/DELLS  CLEAR     48  42  78 NW8       29.83R
LONE ROCK      CLEAR     54  43  66 NW14      29.85R
MINERAL POINT  CLEAR     48  43  81 NW7       29.84R
MADISON        PTCLDY    46  42  86 NW3       29.81R
MIDDLETON      MOCLDY    49  44  80 W6        29.81R
WATERTOWN      PTCLDY    38  38 100 CALM      29.79S FOG
MONROE         CLEAR     46  43  87 W14       29.81R
JANESVILLE     CLEAR     45  43  93 CALM      29.80R
$$

WIZ051-052-058>065-066-070>072-201200-
SOUTHEAST WISCONSIN

CITY           SKY/WX    TMP DP  RH WIND       PRES   REMARKS
MILWAUKEE      CLEAR     49  42  77 W7        29.77F
WAUKESHA       CLEAR     43  41  93 CALM      29.80R
MILWAUKEE/TIMM CLEAR     45  41  87 W6        29.79R
RACINE         CLEAR     48  42  80 W7        29.79S
BURLINGTON     CLEAR     42  40  95 SW3       29.79R
KENOSHA        CLEAR     46  42  86 W7        29.78F
FOND DU LAC    PTCLDY    43  40  89 SW5       29.79R
SHEBOYGAN      CLEAR     45  41  86 W5        29.77R
WEST BEND      CLEAR     45  39  81 W3        29.78S
JUNEAU         MOCLDY    40  38  95 W3        29.81R
$$

LSZ147-162-201200-
LAKE SUPERIOR

STATION/POSITION TIME  TEMP    WIND        PRES    WAVE
                       AIR SEA DIR/SP/G            HT/PER
                 (UTC) (F)     (DEG/KT/KT) (MB)    (FT/S)
W MID LAKE BUOY  1050   47 46  310/  2/  4 1010.7R   1
DEVILS ISLAND    1100   50     310/  8/  9 1011.5R
PORT WING        1000   51     330/ 12/ 15 1011.9R
SAXON HARBOR     1000   48        CALM     1010.8R
$$

LMZ867-665-643>646-201200-
LAKE MICHIGAN

STATION/POSITION TIME  TEMP    WIND        PRES    WAVE
                       AIR SEA DIR/SP/G            HT/PER
                 (UTC) (F)     (DEG/KT/KT) (MB)    (FT/S)
CHAMBERS ISLAND  1000   50     280/  3/  6 1007.8R
N MID LAKE BUOY  1050   52 52  340/ 10/ 10 1007.3R   4/ 7
NORTHPORT PIER   1000   51     290/  5/  8 1007.5R
SISTER BAY       1013          330/  9/ 10   N/A
KEWAUNEE LAKESHO 1000   47     290/  5/  8 1006.4R
SHEBOYGAN LAKESH 1100   49 51  270/ 13/ 14 1008.1R
PORT WASHINGTON  1040   50     290/  8/ 12 1008.8R
ATWATER BUOY     1100   51     260/ 14/ 19 1009.0R
MILWAUKEE LAKESH 1000   51     270/ 11/ 14   N/A
S MID LAKE BUOY  1050   54 55  240/ 14/ 17 1008.3F   4/ 6
KENOSHA   LAKESH 1100   50     260/ 13/ 16 1008.1F
$$

TC  - TEMPERATURE IN CELSIUS
VSB - VISIBILITY IN STATUTE MILES
WCI - WIND CHILL INDEX
HX  - HEAT INDEX



USA.gov is the U.S. government's official web portal to all federal, state and local government web resources and services.